Location: ?????????
(54.7630°N, 39.4991°E)
Time: 18:53:02
(UTC+00:00)

Ariane Rocket - Pass Details

Date: 14 April 2026
Orbit: 755 x 763 km, 98.4° (Epoch: 19 May)

Event Time Altitude Azimuth Distance (km) Brightness Sun altitude
Exits shadow 19:29:40 26° 210° (SSW) 1,474 4.2 -21.4°
Maximum altitude 19:32:00 41° 263° (W) 1,097 3.9 -21.6°
Drops below altitude 10° 19:36:46 10° 333° (NNW) 2,297 6.6 -21.9°
Sets 19:39:13 0° 341° (NNW) 3,228 7.7 -22.1°
